When you browse on this site, cookies collect data to enhance your experience and personalize the content and advertising you see.
Visit our Privacy Policy to learn more. By continuing to use the site, you agree to this use of cookies and data.
  • In Österreich
  • Länderverzeichnis
  • Für 7 Tage
  • Wassertemperatur
  • Satellitenkarten
  • Wetterkarte
  • News
  • Widgets
  • user-avatar
    Anmelden

    Stündliche Wetter Darwin

    Heute, 23 Januar, Mittwoch

    Zeit Temperatur Niederschläge Wind Luftdruck Luftfeuchtigkeit
    00:00 +29°C° 2.3 mm 3 m/S 755 mmHg 89%
    01:00 +29°C° 3.7 mm 3 m/S 755 mmHg 89%
    02:00 +28°C° 3.7 mm 3 m/S 754 mmHg 90%
    03:00 +28°C° 0 mm 3 m/S 754 mmHg 90%
    04:00 +28°C° 3.3 mm 3 m/S 754 mmHg 91%
    05:00 +28°C° 3.3 mm 3 m/S 754 mmHg 91%
    06:00 +28°C° 3.3 mm 3 m/S 754 mmHg 91%
    07:00 +28°C° 2.4 mm 3 m/S 755 mmHg 90%
    08:00 +29°C° 2.4 mm 3 m/S 755 mmHg 90%
    09:00 +30°C° 0 mm 3 m/S 755 mmHg 86%
    10:00 +30°C° 1.9 mm 3 m/S 755 mmHg 84%
    11:00 +30°C° 1.9 mm 2 m/S 755 mmHg 83%
    12:00 +31°C° 1.9 mm 2 m/S 755 mmHg 81%
    13:00 +31°C° 0.9 mm 2 m/S 754 mmHg 82%
    14:00 +30°C° 0.9 mm 1 m/S 754 mmHg 82%
    15:00 +30°C° 0.9 mm 1 m/S 754 mmHg 83%
    16:00 +30°C° 0.2 mm 1 m/S 754 mmHg 84%
    17:00 +30°C° 0.2 mm 1 m/S 754 mmHg 85%
    18:00 +30°C° 0.2 mm 1 m/S 754 mmHg 86%
    19:00 +29°C° 0.1 mm 1 m/S 754 mmHg 87%
    20:00 +29°C° 0.1 mm 1 m/S 754 mmHg 88%
    21:00 +29°C° 0.1 mm 1 m/S 755 mmHg 89%
    22:00 +29°C° 0 mm 1 m/S 755 mmHg 90%
    23:00 +29°C° 0 mm 2 m/S 754 mmHg 90%

    Morgen, 24 Januar, Donnerstag

    Zeit Temperatur Niederschläge Wind Luftdruck Luftfeuchtigkeit
    00:00 +28°C° 0 mm 2 m/S 754 mmHg 91%
    01:00 +28°C° 0.2 mm 2 m/S 754 mmHg 91%
    02:00 +28°C° 0.2 mm 2 m/S 754 mmHg 92%
    03:00 +28°C° 0.2 mm 1 m/S 753 mmHg 92%
    04:00 +28°C° 1.1 mm 2 m/S 753 mmHg 91%
    05:00 +28°C° 1.1 mm 2 m/S 753 mmHg 90%
    06:00 +28°C° 1.1 mm 2 m/S 754 mmHg 90%
    07:00 +29°C° 0.1 mm 2 m/S 754 mmHg 86%
    08:00 +30°C° 0.1 mm 1 m/S 754 mmHg 83%
    09:00 +31°C° 0.1 mm 1 m/S 755 mmHg 80%
    10:00 +31°C° 0.2 mm 1 m/S 754 mmHg 82%
    11:00 +30°C° 0.2 mm 1 m/S 754 mmHg 83%
    12:00 +30°C° 0.2 mm 1 m/S 754 mmHg 85%
    13:00 +30°C° 0.4 mm 2 m/S 754 mmHg 83%
    14:00 +31°C° 0.4 mm 2 m/S 753 mmHg 81%
    15:00 +31°C° 0.4 mm 2 m/S 753 mmHg 79%
    16:00 +31°C° 0 mm 2 m/S 753 mmHg 79%
    17:00 +31°C° 0 mm 3 m/S 753 mmHg 78%
    18:00 +30°C° 0 mm 3 m/S 753 mmHg 78%
    19:00 +30°C° 0 mm 3 m/S 754 mmHg 78%
    20:00 +30°C° 0 mm 3 m/S 754 mmHg 79%
    21:00 +30°C° 0 mm 2 m/S 755 mmHg 79%
    22:00 +30°C° 0.5 mm 3 m/S 755 mmHg 80%
    23:00 +30°C° 0.5 mm 3 m/S 755 mmHg 82%

    übermorgen, 25 Januar, Freitag

    Zeit Temperatur Niederschläge Wind Luftdruck Luftfeuchtigkeit
    00:00 +29°C° 0.5 mm 3 m/S 755 mmHg 83%
    01:00 +29°C° 0.3 mm 3 m/S 755 mmHg 83%
    02:00 +29°C° 0.3 mm 3 m/S 754 mmHg 83%
    03:00 +29°C° 0.3 mm 4 m/S 754 mmHg 84%
    04:00 +29°C° 0.2 mm 3 m/S 754 mmHg 83%
    05:00 +29°C° 0.2 mm 3 m/S 754 mmHg 82%
    06:00 +29°C° 0.2 mm 3 m/S 754 mmHg 81%
    07:00 +30°C° 0 mm 3 m/S 755 mmHg 77%
    08:00 +31°C° 0 mm 3 m/S 755 mmHg 73%
    09:00 +33°C° 0 mm 4 m/S 755 mmHg 69%
    10:00 +34°C° 0 mm 4 m/S 755 mmHg 67%
    11:00 +35°C° 0 mm 4 m/S 755 mmHg 64%
    12:00 +35°C° 0 mm 4 m/S 755 mmHg 62%
    13:00 +35°C° 0 mm 4 m/S 755 mmHg 61%
    14:00 +35°C° 0 mm 5 m/S 754 mmHg 61%
    15:00 +36°C° 0 mm 5 m/S 754 mmHg 60%
    16:00 +35°C° 0.1 mm 5 m/S 754 mmHg 63%
    17:00 +34°C° 0.1 mm 5 m/S 754 mmHg 67%
    18:00 +33°C° 0.1 mm 4 m/S 754 mmHg 70%
    19:00 +33°C° 0 mm 4 m/S 755 mmHg 73%
    20:00 +32°C° 0 mm 4 m/S 755 mmHg 75%
    21:00 +32°C° 0 mm 4 m/S 756 mmHg 77%
    22:00 +30°C° 0 mm 4 m/S 756 mmHg 78%
    23:00 +30°C° 0 mm 4 m/S 756 mmHg 79%

    26 Januar, Samstag

    Zeit Temperatur Niederschläge Wind Luftdruck Luftfeuchtigkeit
    00:00 +30°C° 0 mm 5 m/S 756 mmHg 80%
    01:00 +30°C° 0.1 mm 5 m/S 755 mmHg 80%
    02:00 +30°C° 0.1 mm 4 m/S 755 mmHg 80%
    03:00 +30°C° 0.1 mm 4 m/S 754 mmHg 80%
    04:00 +30°C° 0.3 mm 4 m/S 755 mmHg 80%
    05:00 +30°C° 0.3 mm 4 m/S 755 mmHg 81%
    06:00 +29°C° 0.3 mm 4 m/S 755 mmHg 81%
    07:00 +32°C° 1.2 mm 4 m/S 755 mmHg 77%
    08:00 +33°C° 1.2 mm 4 m/S 756 mmHg 72%
    09:00 +34°C° 1.2 mm 4 m/S 756 mmHg 68%
    10:00 +34°C° 0 mm 5 m/S 756 mmHg 65%
    11:00 +35°C° 0 mm 5 m/S 756 mmHg 62%
    12:00 +36°C° 0 mm 6 m/S 755 mmHg 59%
    13:00 +36°C° 0 mm 6 m/S 755 mmHg 59%
    14:00 +36°C° 0 mm 6 m/S 754 mmHg 59%
    15:00 +36°C° 0 mm 7 m/S 753 mmHg 60%
    16:00 +35°C° 0.1 mm 7 m/S 754 mmHg 63%
    17:00 +34°C° 0.1 mm 7 m/S 754 mmHg 66%
    18:00 +33°C° 0.1 mm 6 m/S 754 mmHg 69%
    19:00 +33°C° 0.1 mm 6 m/S 754 mmHg 71%
    20:00 +32°C° 0.1 mm 7 m/S 754 mmHg 73%
    21:00 +32°C° 0.1 mm 7 m/S 755 mmHg 75%
    22:00 +30°C° 0 mm 6 m/S 755 mmHg 76%
    23:00 +30°C° 0 mm 6 m/S 755 mmHg 76%

    27 Januar, Sonntag

    Zeit Temperatur Niederschläge Wind Luftdruck Luftfeuchtigkeit
    00:00 +30°C° 0 mm 6 m/S 755 mmHg 77%
    01:00 +30°C° 0.4 mm 6 m/S 755 mmHg 78%
    02:00 +30°C° 0.4 mm 6 m/S 754 mmHg 80%
    03:00 +30°C° 0.4 mm 6 m/S 754 mmHg 81%
    04:00 +29°C° 1.9 mm 6 m/S 754 mmHg 83%
    05:00 +29°C° 1.9 mm 6 m/S 754 mmHg 85%
    06:00 +29°C° 1.9 mm 5 m/S 755 mmHg 87%
    07:00 +30°C° 0.3 mm 6 m/S 755 mmHg 83%
    08:00 +32°C° 0.3 mm 6 m/S 755 mmHg 79%
    09:00 +33°C° 0.3 mm 7 m/S 755 mmHg 75%
    10:00 +34°C° 0 mm 7 m/S 755 mmHg 70%
    11:00 +35°C° 0 mm 7 m/S 754 mmHg 65%
    12:00 +36°C° 0 mm 7 m/S 754 mmHg 60%
    13:00 +37°C° 0 mm 8 m/S 753 mmHg 60%
    14:00 +37°C° 0 mm 8 m/S 753 mmHg 60%
    15:00 +37°C° 0 mm 8 m/S 752 mmHg 60%
    16:00 +35°C° 0.3 mm 8 m/S 753 mmHg 66%
    17:00 +34°C° 0.3 mm 7 m/S 753 mmHg 71%
    18:00 +32°C° 0.3 mm 7 m/S 753 mmHg 77%
    19:00 +32°C° 0 mm 7 m/S 753 mmHg 78%
    20:00 +32°C° 0 mm 7 m/S 754 mmHg 79%
    21:00 +30°C° 0 mm 6 m/S 754 mmHg 80%
    22:00 +30°C° 0 mm 7 m/S 754 mmHg 80%
    23:00 +30°C° 0 mm 7 m/S 754 mmHg 80%

    28 Januar, Montag

    Zeit Temperatur Niederschläge Wind Luftdruck Luftfeuchtigkeit
    00:00 +31°C° 0 mm 8 m/S 754 mmHg 80%
    01:00 +31°C° 0 mm 8 m/S 754 mmHg 80%
    02:00 +31°C° 0 mm 8 m/S 753 mmHg 81%
    03:00 +31°C° 0 mm 8 m/S 753 mmHg 81%
    04:00 +30°C° 1.3 mm 7 m/S 753 mmHg 83%
    05:00 +30°C° 1.3 mm 7 m/S 754 mmHg 85%
    06:00 +29°C° 1.3 mm 6 m/S 754 mmHg 87%
    07:00 +30°C° 0.1 mm 6 m/S 754 mmHg 84%
    08:00 +32°C° 0.1 mm 6 m/S 754 mmHg 80%
    09:00 +33°C° 0.1 mm 6 m/S 754 mmHg 76%
    10:00 +34°C° 0 mm 6 m/S 754 mmHg 72%
    11:00 +35°C° 0 mm 7 m/S 754 mmHg 67%
    12:00 +38°C° 0 mm 7 m/S 753 mmHg 62%
    13:00 +36°C° 0.1 mm 7 m/S 753 mmHg 63%
    14:00 +36°C° 0.1 mm 7 m/S 752 mmHg 63%
    15:00 +36°C° 0.1 mm 7 m/S 752 mmHg 64%
    16:00 +35°C° 0 mm 7 m/S 752 mmHg 67%
    17:00 +34°C° 0 mm 7 m/S 752 mmHg 71%
    18:00 +33°C° 0 mm 7 m/S 753 mmHg 74%
    19:00 +33°C° 0 mm 6 m/S 753 mmHg 76%
    20:00 +32°C° 0 mm 6 m/S 754 mmHg 78%
    21:00 +32°C° 0 mm 6 m/S 754 mmHg 80%
    22:00 +32°C° 0.2 mm 6 m/S 754 mmHg 82%
    23:00 +30°C° 0.2 mm 6 m/S 754 mmHg 84%
    Mehr zeigen